Location: Newark
(53.4716°N, 2.0338°W)
Time: 12:02:07
(UTC+00:00)

ISS - Visible Passes

Search period start: 16 September 2019 00:00
Search period end: 26 September 2019 00:00
Orbit: 411 x 421 km, 51.6° (Epoch: 16 September)

Date Brightness Start Highest point End Pass type
(mag) Time Alt. Az. Time Alt. Az. Time Alt. Az.
20 Sep -1.7 19:24:49 10° S 19:26:20 13° SSE 19:26:20 13° SSE visible
21 Sep -2.3 20:11:15 10° SW 20:13:08 25° SSW 20:13:08 25° SSW visible
22 Sep -2.5 19:23:08 10° SSW 19:25:53 24° SSE 19:26:49 21° SE visible
22 Sep -1.2 20:58:59 10° WSW 20:59:44 16° WSW 20:59:44 16° WSW visible
23 Sep -2.0 18:35:13 10° S 18:37:33 18° SE 18:39:54 10° E visible
23 Sep -3.2 20:10:33 10° WSW 20:13:18 44° SSW 20:13:18 44° SSW visible
24 Sep -3.2 19:22:13 10° SW 19:25:21 39° SSE 19:26:45 25° ESE visible
24 Sep -1.3 20:58:33 10° W 20:59:38 19° WSW 20:59:38 19° WSW visible
25 Sep -2.7 18:33:56 10° SW 18:36:54 31° SSE 18:39:54 10° E visible
25 Sep -3.5 20:10:04 10° WSW 20:13:00 57° SSW 20:13:00 57° SSW visible
